Location: Mohawk View
(42.7837°N, 73.7885°W)
Time: 15:57:00
(UTC+00:00)

Cosmos 1634 Rocket - Pass Details

Date: 17 June 2021
Orbit: 960 x 992 km, 82.9° (Epoch: 02 August)

Event Time Altitude Azimuth Distance (km) Brightness Sun altitude
Rises 05:35:06 0° 350° (N) 3,704 8.2 -23.2°
Reaches altitude 10° 05:37:38 10° 348° (NNW) 2,755 7.3 -23.1°
Maximum altitude 05:43:55 72° 266° (W) 1,039 4.0 -22.9°
Enters shadow 05:45:51 46° 196° (SSW) 1,303 4.2 -22.8°
